DW7658 Weather Reports


time (UTC)temp
C
wind
direction
speed
KPH
gust
KPH
rain 1hr
cm
rain 24hr
cm
rain mn
cm
humidity
%
barometer
mb
20260505010015 20 321 0.0 6.4 0.00 0.00 0.00 61 1001.0
20260505004529 20 285 0.0 3.2 0.00 0.00 0.00 60 1000.9
20260505003014 20 240 0.0 3.2 0.00 0.00 0.00 58 1000.9
20260505001513 21 6 0.0 6.4 0.00 0.00 0.00 57 1001.1
20260505000017 21 257 0.0 9.7 0.00 0.00 0.00 56 1001.2
20260504234510 21 99 0.0 6.4 0.00 0.00 0.00 55 1001.2
20260504233010 22 74 0.0 6.4 0.00 0.00 0.00 54 1001.3
20260504231509 22 50 1.6 12.9 0.00 0.00 0.00 52 1001.4
20260504230051 22 255 0.0 16.1 0.00 0.00 0.00 54 1001.6
20260504224606 22 304 0.0 11.3 0.00 0.00 0.00 54 1001.5
20260504223043 23 308 0.0 12.9 0.00 0.00 0.00 53 1001.7
20260504221538 24 23 0.0 6.4 0.00 0.00 0.00 52 1001.8
20260504220037 24 154 0.0 4.8 0.00 0.00 0.00 52 1001.8
20260504214535 24 238 0.0 6.4 0.00 0.00 0.00 52 1002.1
20260504213053 25 240 0.0 8.0 0.00 0.00 0.00 53 1002.2
20260504211536 25 312 0.0 9.7 0.00 0.00 0.00 52 1002.2
20260504210031 25 232 0.0 3.2 0.00 0.00 0.00 53 1002.3
20260504204530 24 236 0.0 8.0 0.00 0.00 0.00 52 1002.5
20260504203010 24 68 1.6 11.3 0.00 0.00 0.00 52 1002.7
20260504201510 24 269 0.0 9.7 0.00 0.00 0.00 56 1003.0
20260504200049 23 282 1.6 9.7 0.00 0.00 0.00 57 1003.3
20260504194556 23 89 1.6 9.7 0.00 0.00 0.00 58 1003.6
20260504193027 22 110 0.0 9.7 0.00 0.00 0.00 63 1003.8
20260504191527 22 56 3.2 12.9 0.00 0.00 0.00 59 1004.0
20260504190024 21 319 4.8 11.3 0.00 0.00 0.00 61 1003.9
20260504184523 21 294 0.0 9.7 0.00 0.00 0.00 63 1003.9
20260504183024 21 228 1.6 12.9 0.00 0.00 0.00 63 1003.9
20260504181522 21 85 3.2 9.7 0.00 0.00 0.00 60 1004.0
20260504180020 20 165 0.0 12.9 0.00 0.00 0.00 63 1003.9
20260504174519 20 81 3.2 11.3 0.00 0.00 0.00 62 1003.9
20260504173020 19 164 3.2 16.1 0.00 0.00 0.00 65 1003.6
20260504171512 20 264 1.6 11.3 0.00 0.00 0.00 64 1004.0
20260504081550 9 124 0.0 4.8 0.00 0.00 0.00 74 1006.8
20260504044604 9 110 0.0 3.2 0.00 0.00 0.00 74 1008.5
20260504043055 9 74 0.0 1.6 0.00 0.00 0.00 75 1008.7
20260504041535 10 81 0.0 0.0 0.00 0.00 0.00 75 1008.8
20260504040034 10 80 0.0 1.6 0.00 0.00 0.00 76 1009.1
20260504034522 10 62 0.0 0.0 0.00 0.00 0.00 78 1009.1
20260504033018 10 63 0.0 1.6 0.00 0.00 0.00 82 1009.2
20260504031516 9 89 0.0 1.6 0.00 0.00 0.00 90 1009.2
20260504030016 9 219 0.0 0.0 0.00 0.00 0.00 90 1009.4
20260504024519 9 93 0.0 1.6 0.00 0.00 0.00 90 1009.2
20260504023015 9 63 0.0 1.6 0.00 0.00 0.00 90 1009.4
20260504021515 10 63 0.0 1.6 0.00 0.00 0.00 86 1009.2
20260504020015 12 270 0.0 4.8 0.00 0.00 0.00 65 1009.3
20260504014515 12 248 0.0 0.0 0.00 0.00 0.00 54 1009.2
20260504013017 12 304 0.0 1.6 0.00 0.00 0.00 52 1009.2
20260504011513 12 232 0.0 1.6 0.00 0.00 0.00 52 1009.2